Riverton, WY

1:09 PM MDT on June 28, 2017 (GMT -0600)
Riverton Regional

Weather History for KRIW - January, 2013

Change the Weather History Date:

Tuesday, January 29, 2013

  Actual Average Record
Temperature  
Mean Temperature 18 °F 20 °F  
Max Temperature 24 °F 32 °F 47 °F (2012)
Min Temperature 11 °F 9 °F -6 °F (2002)
Degree Days  
Heating Degree Days 47 44  
Month to date heating degree days 1416 1310  
Since 1 July heating degree days 4338 4627  
Cooling Degree Days 0 0  
Month to date cooling degree days 0 0  
Year to date cooling degree days 0 0  
Moisture  
Dew Point 6 °F    
Average Humidity 58    
Maximum Humidity 70    
Minimum Humidity 45    
Precipitation  
Precipitation 0.00 in 0.00 in 0.00 in (2017)
Month to date precipitation 0.11 0.22  
Year to date precipitation 0.11 0.22  
Snow  
Snow 0.00 in - - ()
Month to date snowfall 2.7  
Since 1 July snowfall 10.0  
Snow Depth T in    
Sea Level Pressure  
Sea Level Pressure 29.96 in    
Wind  
Wind Speed 9 mph (NW)    
Max Wind Speed 23 mph    
Max Gust Speed 30 mph    
Visibility 10 miles    
Events      
T = Trace of Precipitation, MM = Missing Value Source: NWS Daily Summary

Daily Weather History Graph

Daily Weather History Graph

Search for Another Location

Airport or City:

Trip Planner

Search our weather history database for the weather conditions in past years. The results will help you decide how hot, cold, wet, or windy it might be!

Date:

Astronomy

Jan. 29, 2013 Rise Set
Actual Time 7:31 AM MST 5:22 PM MST
Civil Twilight 7:01 AM MST 5:53 PM MST
Nautical Twilight 6:27 AM MST 6:27 PM MST
Astronomical Twilight 5:53 AM MST 7:00 PM MST
Moon 8:28 PM MST (1/29) 8:24 AM MST (1/29)
Length of Visible Light 10h 51m
Length of Day
9h 51m
Waning Gibbous, 93% of the Moon is Illuminated
Jan 29
Waning Gibbous
Feb 3
Last Quarter
Feb 10
New
Feb 17
First Quarter
Feb 25
Full

Hourly Weather History & Observations

Time (MST) Temp. Windchill Dew Point Humidity Pressure Visibility Wind Dir Wind Speed Gust Speed Precip Events Conditions
12:53 AM 19.0 °F 2.7 °F 1.9 °F 47% 29.82 in 10.0 mi WNW 20.7 mph 27.6 mph N/A   Clear
1:53 AM 16.0 °F 1.1 °F 3.0 °F 57% 29.82 in 10.0 mi West 15.0 mph 23.0 mph N/A   Clear
2:53 AM 15.1 °F 0.5 °F 1.9 °F 56% 29.83 in 10.0 mi West 13.8 mph - N/A   Clear
3:53 AM 16.0 °F 2.3 °F 1.9 °F 54% 29.81 in 10.0 mi WSW 12.7 mph - N/A   Partly Cloudy
4:53 AM 16.0 °F 3.6 °F 1.9 °F 54% 29.80 in 10.0 mi West 10.4 mph - N/A   Clear
5:53 AM 12.0 °F 0.5 °F 1.9 °F 64% 29.83 in 10.0 mi SW 8.1 mph - N/A   Clear
6:53 AM 15.1 °F 5.2 °F 1.0 °F 54% 29.82 in 10.0 mi Variable 6.9 mph - N/A   Clear
7:53 AM 15.1 °F 4.2 °F 1.9 °F 56% 29.83 in 10.0 mi WSW 8.1 mph - N/A   Clear
8:53 AM 17.1 °F - 3.9 °F 56% 29.85 in 10.0 mi Calm Calm - N/A   Mostly Cloudy
9:53 AM 18.0 °F - 6.1 °F 60% 29.87 in 10.0 mi Calm Calm - N/A   Mostly Cloudy
10:53 AM 18.0 °F - 7.0 °F 62% 29.89 in 10.0 mi Calm Calm - N/A   Scattered Clouds
11:53 AM 21.0 °F - 9.0 °F 60% 29.90 in 10.0 mi Calm Calm - N/A   Clear
12:53 PM 21.9 °F 10.4 °F 8.1 °F 55% 29.91 in 10.0 mi ENE 11.5 mph - N/A   Clear
1:53 PM 24.1 °F 16.0 °F 10.9 °F 57% 29.94 in 10.0 mi NNE 6.9 mph - N/A   Overcast
2:53 PM 23.0 °F 8.3 °F 12.0 °F 63% 29.98 in 10.0 mi North 19.6 mph 24.2 mph N/A   Overcast
3:53 PM 23.0 °F 9.6 °F 10.9 °F 60% 30.02 in 10.0 mi North 16.1 mph 21.9 mph N/A   Overcast
4:53 PM 21.9 °F 8.2 °F 10.0 °F 60% 30.06 in 10.0 mi NNE 16.1 mph 24.2 mph N/A   Overcast
5:53 PM 19.9 °F 5.2 °F 8.1 °F 60% 30.12 in 10.0 mi North 17.3 mph - N/A   Clear
6:53 PM 18.0 °F 4.8 °F 9.0 °F 68% 30.13 in 10.0 mi NE 12.7 mph - N/A   Overcast
7:53 PM 18.0 °F 6.1 °F 7.0 °F 62% 30.16 in 10.0 mi North 10.4 mph - N/A   Overcast
8:53 PM 15.1 °F 9.4 °F 6.1 °F 68% 30.18 in 10.0 mi North 3.5 mph - N/A   Mostly Cloudy
9:53 PM 12.9 °F - 5.0 °F 71% 30.17 in 10.0 mi Calm Calm - N/A   Clear
10:53 PM 12.0 °F 4.1 °F 3.9 °F 70% 30.15 in 10.0 mi South 4.6 mph - N/A   Partly Cloudy
11:53 PM 10.9 °F 2.9 °F 7.0 °F 84% 30.12 in 10.0 mi SW 4.6 mph - N/A   Clear